Location: Écuvilly
(49.6505°N, 2.9206°E)
Time: 18:00:14
(UTC+00:00)

Cosmos 1869 - Pass Details

Date: 17 November 2025
Orbit: 453 x 481 km, 82.5° (Epoch: 10 December)

Event Time Altitude Azimuth Distance (km) Brightness Sun altitude
Rises 17:11:01 0° 176° (S) 2,489 6.8 -11.0°
Reaches altitude 10° 17:13:08 10° 171° (S) 1,613 5.8 -11.3°
Maximum altitude 17:16:32 49° 96° (E) 602 3.1 -11.8°
Drops below altitude 10° 17:19:57 10° 20° (NNE) 1,613 5.4 -12.4°
Enters shadow 17:20:52 - 17° (NNE) 1,991 5.9 -12.5°
